Torna al catalogo

PEGASUS DEB

AttivoPO
NORAD 25449·DEBRIS·🇺🇸 United States

Lanciato May 19, 1994 da Vandenberg Space Force Base

Loading…

Prossimi Passaggi (prossime 24 ore)

TLE

AggiornatoSource: Space-Track

Epoca: Sep 14, 2026, 06:12 UTC

1 25449U 94029AED 26257.25870504  .00012840  00000-0  47761-2 0  9993
2 25449  82.0987 203.8769 0766258  61.7535 305.8775 13.32610307315781

Traccia PEGASUS DEB in tempo reale con AllMySat

Download on the App Store